GW0996 Weather Reports


time (UTC)temp
F
wind
direction
speed
knots
gust
knots
rain 1hr
in
rain 24hr
in
rain mn
in
humidity
%
barometer
mb
20260902085633 81 334 0.0 0.9 0.00 0.00 0.00 51 1018.4
20260902085132 81 327 0.9 0.9 0.00 0.00 0.00 50 1018.4
20260902084139 78 331 0.0 1.7 0.00 0.00 0.00 54 1018.7
20260902083632 78 323 0.0 1.7 0.00 0.00 0.00 55 1018.6
20260902083133 78 313 0.0 0.9 0.00 0.00 0.00 55 1018.5
20260902082637 77 313 0.0 1.7 0.00 0.00 0.00 57 1018.5
20260902082137 77 313 0.0 1.7 0.00 0.00 0.00 57 1018.6
20260902081133 76 311 0.0 0.0 0.00 0.00 0.00 60 1018.3
20260902080131 75 310 0.0 0.0 0.00 0.00 0.00 62 1018.3
20260902075632 75 310 0.0 0.0 0.00 0.00 0.00 62 1018.6
20260902075223 75 310 0.0 0.0 0.00 0.00 0.00 64 1018.2
20260902074621 74 310 0.0 0.0 0.00 0.00 0.00 63 1018.3
20260902073555 73 310 0.0 0.0 0.00 0.00 0.00 66 1018.2
20260902073055 72 310 0.0 0.0 0.00 0.00 0.00 65 1018.4
20260902072548 72 310 0.0 0.0 0.00 0.00 0.00 67 1018.1
20260902072046 71 310 0.0 0.0 0.00 0.00 0.00 67 1018.2
20260902071549 70 310 0.0 0.0 0.00 0.00 0.00 67 1018.3
20260902071047 68 310 0.0 0.0 0.00 0.00 0.00 72 1018.3
20260902070545 67 311 0.0 0.0 0.00 0.00 0.00 72 1018.4
20260902070051 68 311 0.0 0.0 0.00 0.00 0.00 72 1018.2
20260902065542 67 311 0.0 0.0 0.00 0.00 0.00 72 1018.4
20260902064545 67 311 0.0 0.0 0.00 0.00 0.00 72 1018.4
20260902064049 66 311 0.0 0.0 0.00 0.00 0.00 73 1018.2
20260902063543 66 311 0.0 0.0 0.00 0.00 0.00 73 1018.1
20260902063046 65 310 0.0 0.0 0.00 0.00 0.00 75 1018.3
20260902062544 65 310 0.0 0.0 0.00 0.00 0.00 73 1018.2
20260902062044 64 310 0.0 0.0 0.00 0.00 0.00 75 1018.4
20260902061545 64 310 0.0 0.0 0.00 0.00 0.00 74 1018.4
20260902060542 62 311 0.0 0.9 0.00 0.00 0.00 79 1018.2
20260902060046 61 310 0.0 0.0 0.00 0.00 0.00 78 1018.4
20260902055543 61 311 0.0 0.0 0.00 0.00 0.00 79 1018.5
20260902055038 60 311 0.0 0.0 0.00 0.00 0.00 82 1018.3
20260902054533 59 311 0.0 0.0 0.00 0.00 0.00 84 1018.2
20260902054034 58 311 0.0 0.0 0.00 0.00 0.00 85 1018.2
20260902053032 57 311 0.0 0.0 0.00 0.00 0.00 86 1018.3
20260902052530 57 311 0.0 0.0 0.00 0.00 0.00 86 1018.1
20260902051530 56 311 0.0 0.0 0.00 0.00 0.00 85 1018.3
20260902051021 56 311 0.0 0.0 0.00 0.00 0.00 86 1018.1
20260902050522 56 311 0.0 0.0 0.00 0.00 0.00 87 1018.1
20260902050019 56 311 0.0 0.0 0.00 0.00 0.00 87 1018.2
20260902045522 56 311 0.0 0.0 0.00 0.00 0.00 87 1018.1
20260902045018 56 311 0.0 0.9 0.00 0.00 0.00 87 1018.2
20260902044519 56 311 0.0 0.9 0.00 0.00 0.00 87 1018.1
20260902043457 56 311 0.0 1.7 0.00 0.00 0.00 86 1018.2
20260902042456 56 311 0.9 1.7 0.00 0.00 0.00 87 1017.9
20260902041957 56 311 0.0 0.0 0.00 0.00 0.00 88 1018.0
20260902041444 56 311 0.0 0.0 0.00 0.00 0.00 87 1017.9
20260902040944 56 311 0.0 0.0 0.00 0.00 0.00 88 1017.7
20260902035943 56 311 0.0 0.0 0.00 0.00 0.00 87 1017.8
20260902035444 56 311 0.0 0.0 0.00 0.00 0.00 87 1017.9
20260902034942 56 311 0.0 0.0 0.00 0.00 0.00 86 1017.9
20260902034442 56 311 0.0 0.0 0.00 0.00 0.00 86 1017.9
20260902033931 56 311 0.0 0.0 0.00 0.00 0.00 86 1017.9
20260902033434 56 311 0.0 0.0 0.00 0.00 0.00 86 1017.8
20260902032431 56 311 0.0 0.0 0.00 0.00 0.00 86 1017.8
20260902031931 56 311 0.0 0.0 0.00 0.00 0.00 86 1017.8
20260902031432 57 311 0.0 0.0 0.00 0.00 0.00 85 1017.7
20260902030919 57 311 0.0 0.0 0.00 0.00 0.00 85 1017.7
20260902030422 57 311 0.0 0.9 0.00 0.00 0.00 84 1017.9
20260902025419 58 311 0.0 0.9 0.00 0.00 0.00 83 1017.9
20260902024920 58 311 0.0 1.7 0.00 0.00 0.00 83 1017.8
20260902024418 58 311 0.0 2.6 0.00 0.00 0.00 82 1017.6
20260902023424 57 329 0.0 0.9 0.00 0.00 0.00 85 1017.8
20260902021924 58 329 0.0 0.0 0.00 0.00 0.00 84 1017.8
20260902021409 58 329 0.0 0.0 0.00 0.00 0.00 84 1017.8
20260902020909 58 329 0.0 0.0 0.00 0.00 0.00 83 1017.7
20260902020407 58 329 0.0 0.0 0.00 0.00 0.00 82 1017.6
20260902015845 58 329 0.0 0.0 0.00 0.00 0.00 82 1017.8
20260902015346 58 329 0.0 0.0 0.00 0.00 0.00 82 1017.6
20260902014838 58 329 0.0 0.0 0.00 0.00 0.00 82 1017.6
20260902014331 58 329 0.0 0.0 0.00 0.00 0.00 81 1017.7
20260902013835 58 329 0.0 0.0 0.00 0.00 0.00 82 1017.5
20260902013335 58 329 0.0 0.0 0.00 0.00 0.00 82 1017.6
20260902012837 58 329 0.0 0.0 0.00 0.00 0.00 81 1017.7
20260902011334 59 329 0.0 0.9 0.00 0.00 0.00 79 1017.8
20260902010837 59 329 0.0 1.7 0.00 0.00 0.00 79 1018.0
20260902010331 59 329 0.0 1.7 0.00 0.00 0.00 80 1017.8
20260902004823 59 330 0.0 0.0 0.00 0.00 0.00 80 1017.7
20260902004320 59 330 0.0 0.0 0.00 0.00 0.00 80 1017.6
20260902002320 60 329 0.0 0.0 0.00 0.00 0.00 77 1017.7
20260902001821 61 329 0.0 0.0 0.00 0.00 0.00 77 1017.8
20260902001307 61 329 0.0 0.0 0.00 0.00 0.00 76 1017.9
20260902000807 61 329 0.0 0.0 0.00 0.00 0.00 76 1017.9
20260902000258 61 329 0.0 0.0 0.00 0.00 0.00 75 1017.9
20260901235755 62 329 0.0 0.0 0.00 0.00 0.00 75 1017.8
20260901235256 62 329 0.0 0.0 0.00 0.00 0.00 75 1017.9
20260901234247 62 329 0.0 1.7 0.00 0.00 0.00 74 1018.1
20260901233748 62 335 0.0 0.9 0.00 0.00 0.00 74 1018.1
20260901233245 62 329 0.9 0.9 0.00 0.00 0.00 75 1018.0
20260901232246 63 334 0.0 0.0 0.00 0.00 0.00 75 1017.9
20260901231746 63 334 0.0 0.0 0.00 0.00 0.00 75 1017.9
20260901230742 64 334 0.0 0.0 0.00 0.00 0.00 73 1018.1
20260901230243 64 334 0.0 0.0 0.00 0.00 0.00 74 1018.1
20260901225247 64 333 0.0 0.9 0.00 0.00 0.00 73 1018.0
20260901224735 65 333 0.0 0.9 0.00 0.00 0.00 72 1018.0
20260901224234 64 333 0.9 0.9 0.00 0.00 0.00 72 1017.9
20260901223238 65 333 0.0 0.9 0.00 0.00 0.00 73 1018.0
20260901222730 65 333 0.0 0.9 0.00 0.00 0.00 73 1018.1
20260901222232 65 333 0.0 0.9 0.00 0.00 0.00 73 1018.0
20260901221736 66 338 0.0 0.0 0.00 0.00 0.00 73 1018.2
20260901220727 67 337 0.0 0.0 0.00 0.00 0.00 72 1018.0
20260901220200 67 337 0.0 0.0 0.00 0.00 0.00 72 1017.9
20260901215658 67 337 0.0 1.7 0.00 0.00 0.00 71 1018.0
20260901215148 67 336 0.0 1.7 0.00 0.00 0.00 71 1018.0
20260901214646 67 339 0.0 1.7 0.00 0.00 0.00 71 1018.0
20260901214145 68 339 0.0 1.7 0.00 0.00 0.00 72 1017.8
20260901213634 67 349 0.0 0.0 0.00 0.00 0.00 72 1017.8
20260901213130 68 349 0.0 0.0 0.00 0.00 0.00 71 1017.8
20260901212634 68 349 0.0 0.9 0.00 0.00 0.00 71 1017.9
20260901212131 69 349 0.0 0.9 0.00 0.00 0.00 70 1017.9
20260901211630 69 349 0.0 0.9 0.00 0.00 0.00 70 1017.9
20260901211133 69 349 0.0 0.0 0.00 0.00 0.00 69 1017.6
20260901210632 70 349 0.0 1.7 0.00 0.00 0.00 68 1017.7
20260901210135 70 348 0.0 1.7 0.00 0.00 0.00 69 1018.0
20260901205635 70 353 0.0 0.9 0.00 0.00 0.00 69 1017.9
20260901205134 70 353 0.0 0.9 0.00 0.00 0.00 69 1017.9
20260901204638 71 352 0.0 0.9 0.00 0.00 0.00 68 1017.8
20260901204136 71 354 0.0 0.0 0.00 0.00 0.00 67 1017.8
20260901203634 71 354 0.0 0.0 0.00 0.00 0.00 66 1017.8
20260901203133 72 354 0.0 0.9 0.00 0.00 0.00 66 1017.9
20260901202643 72 353 0.0 0.9 0.00 0.00 0.00 65 1017.5
20260901201633 73 336 0.0 1.7 0.00 0.00 0.00 63 1017.8
20260901200134 73 314 0.0 0.9 0.00 0.00 0.00 65 1017.7
20260901195638 73 318 0.0 0.9 0.00 0.00 0.00 65 1017.5
20260901195133 73 319 0.0 0.9 0.00 0.00 0.00 65 1017.5
20260901194634 74 317 0.0 0.9 0.00 0.00 0.00 64 1017.4
20260901194139 74 317 0.0 3.5 0.00 0.00 0.00 63 1017.2
20260901193630 74 316 0.0 3.5 0.00 0.00 0.00 64 1017.5
20260901192633 75 308 0.9 2.6 0.00 0.00 0.00 64 1016.8
20260901192137 75 302 0.0 2.6 0.00 0.00 0.00 64 1017.1
20260901191634 76 318 0.9 2.6 0.00 0.00 0.00 63 1017.0
20260901191136 76 311 0.0 1.7 0.00 0.00 0.00 63 1016.9
20260901190634 77 311 0.0 1.7 0.00 0.00 0.00 61 1016.8
20260901190137 78 314 0.0 2.6 0.00 0.00 0.00 60 1016.5
20260901185635 78 309 0.0 3.5 0.00 0.00 0.00 59 1016.4
20260901185133 79 308 2.6 3.5 0.00 0.00 0.00 55 1016.7
20260901184634 80 314 0.9 3.5 0.00 0.00 0.00 55 1016.6
20260901184141 80 317 1.7 3.5 0.00 0.00 0.00 51 1016.4
20260901183634 80 317 0.9 2.6 0.00 0.00 0.00 51 1016.4
20260901183130 80 320 0.9 3.5 0.00 0.00 0.00 51 1016.4
20260901182140 81 307 2.6 5.2 0.00 0.00 0.00 53 1016.3
20260901181646 81 316 0.0 5.2 0.00 0.00 0.00 58 1016.1
20260901181135 81 314 0.9 2.6 0.00 0.00 0.00 59 1016.2
20260901180633 81 309 0.0 2.6 0.00 0.00 0.00 59 1016.4
20260901180131 82 310 0.0 2.6 0.00 0.00 0.00 58 1016.3
20260901175633 82 312 0.9 1.7 0.00 0.00 0.00 58 1016.3
20260901175131 82 312 0.0 1.7 0.00 0.00 0.00 57 1016.1
20260901174631 83 308 0.0 1.7 0.00 0.00 0.00 56 1016.1
20260901174119 83 309 0.9 1.7 0.00 0.00 0.00 55 1016.0
20260901173620 83 304 0.0 5.2 0.00 0.00 0.00 54 1015.6
20260901172622 84 320 0.0 3.5 0.00 0.00 0.00 53 1015.8
20260901172119 85 311 1.7 2.6 0.00 0.00 0.00 53 1015.8
20260901171621 85 345 0.0 1.7 0.00 0.00 0.00 52 1015.6
20260901171119 85 3 0.9 3.5 0.00 0.00 0.00 52 1015.4
20260901170609 85 310 0.0 3.5 0.00 0.00 0.00 51 1015.6
20260901170106 86 313 0.9 2.6 0.00 0.00 0.00 50 1015.5
20260901165607 86 311 0.0 1.7 0.00 0.00 0.00 50 1015.6
20260901165044 86 71 0.9 3.5 0.00 0.00 0.00 48 1015.6
20260901164545 86 320 0.0 3.5 0.00 0.00 0.00 48 1015.4
20260901164031 87 317 0.9 5.2 0.00 0.00 0.00 47 1015.6
20260901163030 87 315 0.0 3.5 0.00 0.00 0.00 47 1015.7
20260901162534 87 44 0.0 0.9 0.00 0.00 0.00 46 1015.7
20260901162035 87 107 0.0 0.9 0.00 0.00 0.00 45 1015.6
20260901161034 88 52 0.0 0.9 0.00 0.00 0.00 44 1015.5
20260901160522 88 43 0.0 1.7 0.00 0.00 0.00 44 1015.5
20260901160013 88 349 0.0 5.2 0.00 0.00 0.00 44 1015.7
20260901155455 88 317 0.0 5.2 0.00 0.00 0.00 44 1015.7
20260901154948 88 315 1.7 5.2 0.00 0.00 0.00 44 1015.6
20260901153932 87 310 1.7 3.5 0.00 0.00 0.00 44 1015.8
20260901153435 87 327 1.7 6.1 0.00 0.00 0.00 44 1015.5
20260901152936 88 324 0.9 8.7 0.00 0.00 0.00 44 1015.6
20260901152433 88 323 2.6 8.7 0.00 0.00 0.00 43 1015.4
20260901151933 89 297 0.0 7.8 0.00 0.00 0.00 43 1015.6
20260901151433 89 318 0.0 5.2 0.00 0.00 0.00 44 1015.6
20260901150932 89 327 4.3 7.0 0.00 0.00 0.00 43 1015.4
20260901150431 89 322 0.9 7.0 0.00 0.00 0.00 43 1015.3
20260901145934 89 295 1.7 6.1 0.00 0.00 0.00 43 1015.4
20260901145430 89 316 2.6 7.0 0.00 0.00 0.00 42 1015.6
20260901143931 89 317 2.6 7.0 0.00 0.00 0.00 42 1015.7
20260901143433 90 82 0.0 5.2 0.00 0.00 0.00 41 1015.5
20260901142940 90 156 0.9 7.0 0.00 0.00 0.00 40 1015.6
20260901142433 90 320 1.7 7.8 0.00 0.00 0.00 40 1015.5
20260901141934 90 330 3.5 7.8 0.00 0.00 0.00 39 1015.6
20260901141436 90 303 0.9 8.7 0.00 0.00 0.00 40 1015.5
20260901140940 90 328 2.6 8.7 0.00 0.00 0.00 40 1015.5
20260901140434 90 80 0.0 6.1 0.00 0.00 0.00 40 1015.3
20260901135434 91 302 0.0 7.8 0.00 0.00 0.00 40 1015.6
20260901134426 92 112 0.9 1.7 0.00 0.00 0.00 37 1015.7
20260901133920 92 152 0.0 0.9 0.00 0.00 0.00 36 1015.7
20260901133407 91 54 0.0 6.1 0.00 0.00 0.00 38 1015.7
20260901132910 91 312 0.0 7.0 0.00 0.00 0.00 38 1015.7
20260901132407 91 316 1.7 7.0 0.00 0.00 0.00 38 1015.8
20260901131855 91 306 0.9 6.1 0.00 0.00 0.00 39 1015.8
20260901131358 91 322 2.6 6.1 0.00 0.00 0.00 37 1015.6
20260901130855 91 313 2.6 8.7 0.00 0.00 0.00 37 1015.7
20260901130342 90 311 1.7 8.7 0.00 0.00 0.00 38 1015.6
20260901124834 93 306 0.0 6.1 0.00 0.00 0.00 36 1015.8
20260901124334 94 322 0.0 6.1 0.00 0.00 0.00 37 1016.1
20260901123912 93 220 0.0 0.9 0.00 0.00 0.00 35 1015.9
20260901123333 92 146 0.0 3.5 0.00 0.00 0.00 35 1016.1
20260901122831 91 356 0.0 3.5 0.00 0.00 0.00 38 1016.1
20260901122338 91 310 1.7 3.5 0.00 0.00 0.00 38 1016.1
20260901121834 91 304 0.9 7.8 0.00 0.00 0.00 39 1016.1
20260901121334 90 322 0.0 7.8 0.00 0.00 0.00 39 1016.2
20260901120834 90 303 0.9 7.0 0.00 0.00 0.00 40 1016.2
20260901115835 91 213 0.0 2.6 0.00 0.00 0.00 39 1016.2
20260901115334 91 11 0.0 6.1 0.00 0.00 0.00 39 1016.2
20260901114833 90 349 0.9 7.8 0.00 0.00 0.00 42 1016.4
20260901114333 90 313 3.5 7.8 0.00 0.00 0.00 41 1016.2
20260901113833 90 330 0.9 7.0 0.00 0.00 0.00 42 1016.3
20260901112832 90 332 1.7 7.0 0.00 0.00 0.00 44 1016.2
20260901111330 89 315 0.0 3.5 0.00 0.00 0.00 44 1016.4
20260901110832 89 328 0.0 6.1 0.00 0.00 0.00 42 1016.5
20260901110331 88 312 3.5 7.8 0.00 0.00 0.00 43 1016.4
20260901105832 90 333 2.6 7.8 0.00 0.00 0.00 44 1016.4
20260901105331 92 339 0.9 3.5 0.00 0.00 0.00 44 1016.5
20260901104835 92 117 0.0 1.7 0.00 0.00 0.00 43 1016.4
20260901104330 91 152 0.0 1.7 0.00 0.00 0.00 44 1016.6
20260901103836 91 305 0.0 1.7 0.00 0.00 0.00 47 1016.6
20260901103331 90 143 0.0 2.6 0.00 0.00 0.00 45 1016.7
20260901102833 91 169 0.0 2.6 0.00 0.00 0.00 45 1016.6
20260901102333 90 134 0.0 1.7 0.00 0.00 0.00 45 1016.7
20260901101840 89 37 0.0 3.5 0.00 0.00 0.00 49 1016.9
20260901101333 88 325 0.0 3.5 0.00 0.00 0.00 49 1016.6
20260901100833 89 313 2.6 3.5 0.00 0.00 0.00 48 1016.7
20260901100337 88 15 0.9 5.2 0.00 0.00 0.00 51 1016.7
20260901095834 88 309 1.7 5.2 0.00 0.00 0.00 50 1016.7
20260901095334 89 161 0.0 1.7 0.00 0.00 0.00 52 1017.0
20260901094832 88 323 0.0 2.6 0.00 0.00 0.00 54 1016.9
20260901094331 87 313 1.7 2.6 0.00 0.00 0.00 53 1016.9
20260901093830 87 304 1.7 2.6 0.00 0.00 0.00 52 1017.0
20260901093335 87 86 0.9 1.7 0.00 0.00 0.00 55 1017.0
20260901092832 87 298 0.0 2.6 0.00 0.00 0.00 53 1017.1
20260901092331 85 187 0.0 2.6 0.00 0.00 0.00 56 1017.2
20260901091835 86 304 2.6 2.6 0.00 0.00 0.00 56 1017.1
20260901091336 86 358 0.9 1.7 0.00 0.00 0.00 57 1017.1
20260901090833 85 316 0.0 1.7 0.00 0.00 0.00 60 1017.1
20260901085834 85 320 0.0 1.7 0.00 0.00 0.00 58 1017.3